Weather History for Victoria, BC

Change the Weather History Date:

Friday, October 18, 2013

  Actual Average Record
Temperature  
Mean Temperature 46 °F -  
Max Temperature 51 °F 52 °F 64 °F (1999)
Min Temperature 41 °F 38 °F 37 °F (1998)
Degree Days  
Heating Degree Days 19    
Moisture  
Dew Point 47 °F    
Average Humidity 99    
Maximum Humidity 100    
Minimum Humidity 94    
Precipitation  
Precipitation 0.00 in 0.15 in - ()
Sea Level Pressure  
Sea Level Pressure 30.24 in    
Wind  
Wind Speed 3 mph ()    
Max Wind Speed 6 mph    
Max Gust Speed -    
Visibility 1.6 miles    
Events Fog    
Averages and records for this station are not official NWS values.
T = Trace of Precipitation, MM = Missing Value Source: Averaged Metar Reports

Daily Weather History Graph

Daily Weather History Graph

Search for Another Location

Airport:

Trip Planner

Search our weather history database for the weather conditions in past years. The results will help you decide how hot, cold, wet, or windy it might be!

Date:

Astronomy

Oct. 18, 2013 Rise Set
Actual Time 7:38 AM PDT 6:17 PM PDT
Civil Twilight 7:07 AM PDT 6:49 PM PDT
Nautical Twilight 6:30 AM PDT 7:26 PM PDT
Astronomical Twilight 5:54 AM PDT 8:02 PM PDT
Moon 6:08 PM PDT 7:20 AM PDT
Length of Visible Light 11h 42m
Length of Day
10h 38m
Full, 100% of the Moon is Illuminated
Oct 18
Full
Oct 18
Full
Oct 26
Last Quarter
Nov 3
New
Nov 9
First Quarter

Hourly Weather History & Observations

Time (PDT) Temp. Windchill Dew Point Humidity Pressure Visibility Wind Dir Wind Speed Gust Speed Precip Events Conditions
12:00 AM 46.4 °F 43.5 °F 46.4 °F 100% 30.27 in 0.2 mi West 5.8 mph - N/A Fog Fog
1:00 AM 46.4 °F - 46.4 °F 100% 30.27 in 0.5 mi WSW 2.3 mph - N/A Fog Fog
1:22 AM 46.4 °F - 46.4 °F 100% 30.27 in 0.1 mi Variable 2.3 mph - N/A Fog Fog
2:00 AM 44.6 °F - 44.6 °F 100% 30.28 in 0.1 mi Calm Calm - N/A Fog Fog
3:00 AM 44.6 °F - 44.6 °F 100% 30.28 in 0.2 mi Variable 2.3 mph - N/A Fog Fog
4:00 AM 44.6 °F - 44.6 °F 100% 30.27 in 0.0 mi North 2.3 mph - N/A Fog Fog
5:00 AM 44 °F - 44 °F 99% 30.27 in 0 mi NNE 2.3 mph - - Fog Heavy Fog
5:00 AM 44.6 °F 43.1 °F 44.6 °F 100% 30.27 in 0.0 mi North 3.5 mph - N/A Fog Fog
6:00 AM 44.6 °F 43.1 °F 44.6 °F 100% 30.26 in 0.1 mi North 3.5 mph - N/A Fog Fog
7:00 AM 44.6 °F - 44.6 °F 100% 30.27 in 0.4 mi NNW 2.3 mph - N/A Fog Fog
7:33 AM 44.6 °F 43.1 °F 44.6 °F 100% 30.27 in 0.1 mi WNW 3.5 mph - N/A Fog Fog
8:00 AM 44.6 °F - 44.6 °F 100% 30.27 in 0.1 mi NW 2.3 mph - N/A Fog Fog
9:00 AM 44.6 °F - 44.6 °F 100% 30.27 in 0.1 mi NW 2.3 mph - N/A Fog Fog
10:00 AM 46.4 °F 45.2 °F 46.4 °F 100% 30.28 in 0.2 mi NNW 3.5 mph - N/A Fog Fog
10:37 AM 46.4 °F - 46.4 °F 100% 30.28 in 0.5 mi Calm Calm - N/A Fog Fog
11:00 AM 47 °F - 47 °F 100% 30.28 in 0 mi North 3.5 mph - - Fog Partial Fog
11:00 AM 46.4 °F - 46.4 °F 100% 30.28 in 0.5 mi North 2.3 mph - N/A Fog Fog
12:00 PM 48.2 °F - 48.2 °F 100% 30.27 in 0.8 mi NE 3.5 mph - N/A   Overcast
12:17 PM 48.2 °F - 48.2 °F 100% 30.27 in 1.5 mi Variable 2.3 mph - N/A   Mostly Cloudy
1:00 PM 48.2 °F - 48.2 °F 100% 30.26 in 1.5 mi ENE 3.5 mph - N/A   Overcast
1:47 PM 50.0 °F - 48.2 °F 94% 30.25 in 2.5 mi ENE 5.8 mph - N/A   Mostly Cloudy
2:00 PM 48.2 °F - 48.2 °F 100% 30.25 in 4.0 mi ENE 5.8 mph - N/A   Mostly Cloudy
2:29 PM 50.0 °F - 48.2 °F 94% 30.23 in 6.0 mi NE 4.6 mph - N/A   Mostly Cloudy
3:00 PM 50.0 °F - 48.2 °F 94% 30.22 in 4.0 mi NE 5.8 mph - N/A   Mostly Cloudy
3:27 PM 50.0 °F - 50.0 °F 100% 30.22 in 15.0 mi East 3.5 mph - N/A   Mostly Cloudy
4:00 PM 50.0 °F - 50.0 °F 100% 30.21 in 20.0 mi ESE 4.6 mph - N/A   Scattered Clouds
4:11 PM 50.0 °F - 48.2 °F 94% 30.21 in 3.0 mi East 5.8 mph - N/A   Mostly Cloudy
4:33 PM 50.0 °F - 48.2 °F 94% 30.20 in 1.5 mi East 3.5 mph - N/A   Mostly Cloudy
4:45 PM 48.2 °F - 48.2 °F 100% 30.19 in 0.5 mi ENE 4.6 mph - N/A Fog Fog
5:00 PM 48 °F - 48 °F 100% 30.19 in 0 mi East 4.6 mph - - Fog Partial Fog
5:00 PM 48.2 °F - 48.2 °F 100% 30.19 in 0.2 mi East 3.5 mph - N/A Fog Fog
5:43 PM 48.2 °F - 48.2 °F 100% 30.18 in 0.1 mi East 4.6 mph - N/A Fog Fog
6:00 PM 48.2 °F - 48.2 °F 100% 30.18 in 0.1 mi East 3.5 mph - N/A Fog Fog
7:00 PM 48.2 °F - 48.2 °F 100% 30.19 in 0.1 mi NNE 3.5 mph - N/A Fog Fog
8:00 PM 46.4 °F - 46.4 °F 100% 30.18 in 0.1 mi Calm Calm - N/A Fog Fog
9:00 PM 46.4 °F - 46.4 °F 100% 30.19 in 0.1 mi North 2.3 mph - N/A Fog Fog
10:00 PM 44.6 °F - 44.6 °F 100% 30.19 in 0.1 mi Calm Calm - N/A Fog Fog
11:00 PM 46 °F - 46 °F 99% 30.19 in 0 mi West 1.2 mph - - Fog Heavy Fog
11:00 PM 46.4 °F - 46.4 °F 100% 30.19 in 0.1 mi Calm Calm - N/A Fog Fog